Location: Poprad
(49.0500°N, 20.3000°E)
Time: 01:47:37
(UTC+02:00)

UNISAT 6 - Visible Passes

Search period start: 19 April 2024 00:00
Search period end: 29 April 2024 00:00
Orbit: 593 x 670 km, 97.7° (Epoch: 18 April)

Date Brightness Start Highest point End Pass type
(mag) Time Alt. Az. Time Alt. Az. Time Alt. Az.
19 Apr ? 03:03:44 10° E 03:06:20 16° ENE 03:08:55 10° NNE visible
19 Apr ? 04:37:47 10° S 04:42:12 73° WSW 04:46:34 10° NNW visible
20 Apr ? 03:23:32 10° ESE 03:26:59 23° ENE 03:30:23 10° NNE visible
20 Apr ? 04:58:53 10° S 05:03:07 45° W 05:07:18 10° NNW visible
21 Apr ? 03:43:43 10° SE 03:47:41 34° ENE 03:51:36 10° N visible
22 Apr ? 04:04:09 10° SSE 04:08:24 53° ENE 04:12:37 10° N visible
23 Apr ? 02:51:47 10° E 02:53:29 12° ENE 02:55:10 10° NE visible
23 Apr ? 04:24:48 10° SSE 04:29:11 85° ENE 04:33:30 10° NNW visible
24 Apr ? 03:11:06 10° ESE 03:14:01 18° ENE 03:16:55 10° NNE visible
24 Apr ? 04:45:41 10° S 04:50:00 60° WSW 04:54:15 10° NNW visible
25 Apr ? 03:31:00 10° ESE 03:34:37 26° ENE 03:38:11 10° N visible
26 Apr ? 03:51:12 10° SE 03:55:14 40° ENE 03:59:14 10° N visible
27 Apr ? 04:11:37 10° SSE 04:15:55 64° ENE 04:20:08 10° N visible
28 Apr ? 02:58:38 10° E 03:00:49 14° ENE 03:02:59 10° NNE visible
28 Apr ? 04:32:17 10° S 04:36:37 80° WSW 04:40:54 10° NNW visible
